Wetterdaten: Woche 04.12.06 - 10.12.06 (KW49)
Datum Zeit Temperatur Luftfeuchte Luftdruck Niederschlag Windrichtung Wind
04.12.2006 00:00 9,1 C 96 % 1013 hPa 1,0 l/m SW 14,6 km/h (3 Bft)
04.12.2006 01:00 9,1 C 95 % 1013 hPa 0,0 l/m SW 13,7 km/h (3 Bft)
04.12.2006 02:00 9,1 C 94 % 1013 hPa 0,0 l/m SW 12,2 km/h (2 Bft)
04.12.2006 03:00 9,1 C 93 % 1013 hPa 0,0 l/m S-SW 8,8 km/h (2 Bft)
04.12.2006 04:00 8,8 C 97 % 1012 hPa 0,0 l/m S-SW 7,4 km/h (2 Bft)
04.12.2006 05:00 8,3 C 95 % 1013 hPa 0,0 l/m SW 6,2 km/h (2 Bft)
04.12.2006 06:00 7,7 C 100 % 1013 hPa 1,0 l/m S-SW 9,2 km/h (2 Bft)
04.12.2006 07:00 7,1 C 99 % 1014 hPa 1,0 l/m SW 10,5 km/h (2 Bft)
04.12.2006 08:00 6,4 C 100 % 1014 hPa 0,0 l/m S-SW 11,0 km/h (2 Bft)
04.12.2006 09:00 5,8 C 100 % 1014 hPa 0,0 l/m S-SW 15,4 km/h (3 Bft)
04.12.2006 10:00 6,0 C 100 % 1014 hPa 0,0 l/m S-SW 15,4 km/h (3 Bft)
04.12.2006 11:00 7,3 C 94 % 1013 hPa 0,0 l/m S-SW 16,0 km/h (3 Bft)
04.12.2006 12:00 8,1 C 88 % 1013 hPa 0,0 l/m S-SW 14,6 km/h (3 Bft)
04.12.2006 13:00 8,5 C 88 % 1011 hPa 0,0 l/m S-SW 14,4 km/h (3 Bft)
04.12.2006 14:00 7,8 C 98 % 1011 hPa 1,0 l/m S-SW 13,2 km/h (3 Bft)
04.12.2006 15:00 7,7 C 100 % 1011 hPa 1,0 l/m S-SW 14,7 km/h (3 Bft)
04.12.2006 16:00 8,6 C 100 % 1011 hPa 0,0 l/m S-SW 20,3 km/h (4 Bft)
04.12.2006 17:00 9,0 C 100 % 1012 hPa 0,0 l/m SW 16,9 km/h (3 Bft)
04.12.2006 18:00 9,5 C 100 % 1013 hPa 0,0 l/m SW 14,7 km/h (3 Bft)
04.12.2006 19:00 9,5 C 100 % 1014 hPa 1,0 l/m W-SW 10,3 km/h (2 Bft)
04.12.2006 20:00 9,3 C 100 % 1014 hPa 0,0 l/m S-SW 11,7 km/h (2 Bft)
04.12.2006 21:00 9,6 C 100 % 1015 hPa 0,0 l/m S 13,2 km/h (3 Bft)
04.12.2006 22:00 10,1 C 98 % 1015 hPa 0,0 l/m S 16,2 km/h (3 Bft)
04.12.2006 23:00 10,1 C 100 % 1015 hPa 1,0 l/m SW 17,5 km/h (3 Bft)
05.12.2006 00:00 9,7 C 100 % 1015 hPa 1,0 l/m S-SW 15,6 km/h (3 Bft)
05.12.2006 01:00 9,2 C 100 % 1015 hPa 0,0 l/m S 14,0 km/h (3 Bft)
05.12.2006 02:00 9,5 C 100 % 1015 hPa 0,0 l/m S 14,6 km/h (3 Bft)
05.12.2006 03:00 10,0 C 100 % 1014 hPa 1,0 l/m S 16,3 km/h (3 Bft)
05.12.2006 04:00 9,6 C 100 % 1014 hPa 0,0 l/m S 14,7 km/h (3 Bft)
05.12.2006 05:00 8,9 C 100 % 1014 hPa 0,0 l/m S 12,3 km/h (3 Bft)
05.12.2006 06:00 9,0 C 100 % 1015 hPa 0,0 l/m S 11,5 km/h (2 Bft)
05.12.2006 07:00 8,9 C 100 % 1015 hPa 0,0 l/m S 12,4 km/h (3 Bft)
05.12.2006 08:00 8,8 C 100 % 1015 hPa 0,0 l/m S 7,4 km/h (2 Bft)
05.12.2006 09:00 9,2 C 100 % 1015 hPa 0,0 l/m S 5,8 km/h (2 Bft)
05.12.2006 10:00 10,7 C 96 % 1015 hPa 0,0 l/m S 10,9 km/h (2 Bft)
05.12.2006 11:00 12,1 C 81 % 1015 hPa 0,0 l/m S-SW 15,5 km/h (3 Bft)
05.12.2006 12:00 12,7 C 77 % 1014 hPa 0,0 l/m SW 12,6 km/h (3 Bft)
05.12.2006 13:00 12,6 C 78 % 1014 hPa 0,0 l/m S 10,3 km/h (2 Bft)
05.12.2006 14:00 12,7 C 81 % 1013 hPa 0,0 l/m S-SO 6,7 km/h (2 Bft)
05.12.2006 15:00 12,1 C 86 % 1012 hPa 0,0 l/m S 7,3 km/h (2 Bft)
05.12.2006 16:00 10,5 C 90 % 1011 hPa 0,0 l/m S-SO 3,6 km/h (1 Bft)
05.12.2006 17:00 9,4 C 94 % 1011 hPa 0,0 l/m S 0,9 km/h (0 Bft)
05.12.2006 18:00 9,2 C 98 % 1011 hPa 0,0 l/m S-SO 4,7 km/h (1 Bft)
05.12.2006 19:00 8,8 C 100 % 1010 hPa 0,0 l/m SO 2,5 km/h (1 Bft)
05.12.2006 20:00 8,0 C 100 % 1010 hPa 0,0 l/m SO 0,9 km/h (0 Bft)
05.12.2006 21:00 7,4 C 100 % 1010 hPa 0,0 l/m N 0,0 km/h (0 Bft)
05.12.2006 22:00 7,3 C 100 % 1009 hPa 0,0 l/m N 0,0 km/h (0 Bft)
05.12.2006 23:00 6,9 C 100 % 1009 hPa 0,0 l/m N 0,0 km/h (0 Bft)
06.12.2006 00:00 6,0 C 100 % 1009 hPa 0,0 l/m W-NW 1,4 km/h (1 Bft)
06.12.2006 01:00 6,1 C 100 % 1009 hPa 0,0 l/m N 2,0 km/h (1 Bft)
06.12.2006 02:00 4,9 C 100 % 1008 hPa 0,0 l/m N 0,0 km/h (0 Bft)
06.12.2006 03:00 4,5 C 100 % 1007 hPa 0,0 l/m N 0,0 km/h (0 Bft)
06.12.2006 04:00 3,9 C 100 % 1007 hPa 0,0 l/m N 0,0 km/h (0 Bft)
06.12.2006 05:00 3,7 C 100 % 1007 hPa 0,0 l/m N 0,0 km/h (0 Bft)
06.12.2006 06:00 3,7 C 100 % 1007 hPa 0,0 l/m N 0,0 km/h (0 Bft)
06.12.2006 07:00 3,3 C 100 % 1007 hPa 0,0 l/m N 0,0 km/h (0 Bft)
06.12.2006 08:00 3,4 C 100 % 1008 hPa 0,0 l/m N 0,0 km/h (0 Bft)
06.12.2006 09:00 4,7 C 100 % 1009 hPa 0,0 l/m W-SW 1,1 km/h (0 Bft)
06.12.2006 10:00 6,8 C 100 % 1010 hPa 0,0 l/m NW 9,2 km/h (2 Bft)
06.12.2006 11:00 7,0 C 96 % 1011 hPa 1,0 l/m W-NW 13,4 km/h (3 Bft)
06.12.2006 12:00 5,9 C 98 % 1013 hPa 1,0 l/m W 4,7 km/h (1 Bft)
06.12.2006 13:00 5,4 C 99 % 1013 hPa 5,0 l/m SW 4,9 km/h (1 Bft)
06.12.2006 14:00 4,7 C 100 % 1014 hPa 2,0 l/m S 7,7 km/h (2 Bft)
06.12.2006 15:00 4,7 C 100 % 1014 hPa 1,0 l/m S 11,1 km/h (2 Bft)
06.12.2006 16:00 4,6 C 100 % 1015 hPa 0,0 l/m S 15,0 km/h (3 Bft)
06.12.2006 17:00 4,4 C 100 % 1015 hPa 1,0 l/m S 10,7 km/h (2 Bft)
06.12.2006 18:00 4,6 C 100 % 1016 hPa 0,0 l/m S 12,8 km/h (3 Bft)
06.12.2006 19:00 4,4 C 100 % 1016 hPa 0,0 l/m S 11,1 km/h (2 Bft)
06.12.2006 20:00 4,2 C 100 % 1016 hPa 0,0 l/m S 11,3 km/h (2 Bft)
06.12.2006 21:00 4,2 C 100 % 1017 hPa 0,0 l/m S 7,0 km/h (2 Bft)
06.12.2006 22:00 4,3 C 100 % 1017 hPa 1,0 l/m S 9,3 km/h (2 Bft)
06.12.2006 23:00 4,3 C 100 % 1017 hPa 0,0 l/m S 10,0 km/h (2 Bft)
07.12.2006 00:00 4,4 C 100 % 1017 hPa 0,0 l/m S 11,8 km/h (2 Bft)
07.12.2006 01:00 4,5 C 100 % 1017 hPa 0,0 l/m S 12,7 km/h (3 Bft)
07.12.2006 02:00 4,6 C 100 % 1018 hPa 0,0 l/m S 10,2 km/h (2 Bft)
07.12.2006 03:00 4,3 C 100 % 1017 hPa 0,0 l/m S 10,1 km/h (2 Bft)
07.12.2006 04:00 4,1 C 100 % 1017 hPa 0,0 l/m S 9,1 km/h (2 Bft)
07.12.2006 05:00 3,8 C 100 % 1017 hPa 0,0 l/m S 6,0 km/h (2 Bft)
07.12.2006 06:00 2,8 C 100 % 1016 hPa 0,0 l/m S 2,8 km/h (1 Bft)
07.12.2006 07:00 2,6 C 100 % 1016 hPa 0,0 l/m S-SO 2,2 km/h (1 Bft)
07.12.2006 08:00 2,2 C 100 % 1015 hPa 0,0 l/m O 1,6 km/h (1 Bft)
07.12.2006 09:00 2,1 C 100 % 1014 hPa 0,0 l/m S 1,6 km/h (1 Bft)
07.12.2006 10:00 2,6 C 100 % 1014 hPa 0,0 l/m SO 0,6 km/h (0 Bft)
07.12.2006 11:00 3,8 C 100 % 1012 hPa 0,0 l/m S 6,9 km/h (2 Bft)
07.12.2006 12:00 6,6 C 91 % 1011 hPa 0,0 l/m S 7,8 km/h (2 Bft)
07.12.2006 13:00 8,1 C 75 % 1010 hPa 0,0 l/m S-SW 8,3 km/h (2 Bft)
07.12.2006 14:00 8,3 C 73 % 1010 hPa 0,0 l/m S-SW 8,7 km/h (2 Bft)
07.12.2006 15:00 6,4 C 81 % 1010 hPa 0,0 l/m S 9,4 km/h (2 Bft)
07.12.2006 16:00 4,6 C 93 % 1010 hPa 0,0 l/m S 10,6 km/h (2 Bft)
07.12.2006 17:00 3,9 C 99 % 1010 hPa 0,0 l/m S 9,2 km/h (2 Bft)
07.12.2006 18:00 4,0 C 99 % 1010 hPa 0,0 l/m S 10,0 km/h (2 Bft)
07.12.2006 19:00 4,2 C 98 % 1010 hPa 0,0 l/m S 12,0 km/h (2 Bft)
07.12.2006 20:00 4,5 C 100 % 1010 hPa 0,0 l/m S 19,0 km/h (3 Bft)
07.12.2006 21:00 4,9 C 99 % 1009 hPa 0,0 l/m S 23,7 km/h (4 Bft)
07.12.2006 22:00 5,4 C 93 % 1009 hPa 0,0 l/m S 8,6 km/h (2 Bft)
07.12.2006 23:00 5,1 C 95 % 1009 hPa 0,0 l/m S 1,5 km/h (1 Bft)
08.12.2006 00:00 4,2 C 97 % 1008 hPa 0,0 l/m N 0,0 km/h (0 Bft)
08.12.2006 01:00 2,9 C 99 % 1008 hPa 0,0 l/m N 0,0 km/h (0 Bft)
08.12.2006 02:00 2,6 C 100 % 1007 hPa 0,0 l/m N 0,0 km/h (0 Bft)
08.12.2006 03:00 2,5 C 100 % 1007 hPa 0,0 l/m N 0,0 km/h (0 Bft)
08.12.2006 04:00 2,8 C 100 % 1006 hPa 0,0 l/m N 0,0 km/h (0 Bft)
08.12.2006 05:00 3,0 C 100 % 1005 hPa 0,0 l/m N 0,0 km/h (0 Bft)
08.12.2006 06:00 2,6 C 100 % 1004 hPa 0,0 l/m W-NW 0,6 km/h (0 Bft)
08.12.2006 07:00 2,5 C 100 % 1004 hPa 0,0 l/m W-NW 0,2 km/h (0 Bft)
08.12.2006 08:00 3,2 C 100 % 1003 hPa 0,0 l/m N 0,0 km/h (0 Bft)
08.12.2006 09:00 5,1 C 100 % 1002 hPa 0,0 l/m NW 2,0 km/h (1 Bft)
08.12.2006 10:00 7,7 C 90 % 1001 hPa 0,0 l/m O 2,3 km/h (1 Bft)
08.12.2006 11:00 11,6 C 65 % 1000 hPa 0,0 l/m S-SO 9,5 km/h (2 Bft)
08.12.2006 12:00 15,4 C 47 % 999 hPa 0,0 l/m S-SO 22,9 km/h (4 Bft)
08.12.2006 13:00 16,5 C 42 % 998 hPa 0,0 l/m S-SO 26,7 km/h (4 Bft)
08.12.2006 14:00 16,0 C 48 % 998 hPa 0,0 l/m S 14,6 km/h (3 Bft)
08.12.2006 15:00 12,9 C 61 % 999 hPa 0,0 l/m SW 13,0 km/h (3 Bft)
08.12.2006 16:00 12,1 C 53 % 1001 hPa 0,0 l/m SW 10,7 km/h (2 Bft)
08.12.2006 17:00 10,7 C 61 % 1003 hPa 0,0 l/m SW 11,4 km/h (2 Bft)
08.12.2006 18:00 8,5 C 68 % 1004 hPa 0,0 l/m S-SW 12,8 km/h (3 Bft)
08.12.2006 19:00 7,6 C 69 % 1005 hPa 0,0 l/m S 11,6 km/h (2 Bft)
08.12.2006 20:00 5,9 C 85 % 1006 hPa 0,0 l/m S-SO 8,0 km/h (2 Bft)
08.12.2006 21:00 5,1 C 95 % 1006 hPa 1,0 l/m SO 10,6 km/h (2 Bft)
08.12.2006 22:00 4,5 C 97 % 1006 hPa 0,0 l/m S-SO 9,8 km/h (2 Bft)
08.12.2006 23:00 4,4 C 97 % 1006 hPa 0,0 l/m S 11,6 km/h (2 Bft)
09.12.2006 00:00 4,2 C 96 % 1006 hPa 1,0 l/m SO 8,5 km/h (2 Bft)
09.12.2006 01:00 3,9 C 98 % 1006 hPa 0,0 l/m S-SO 8,2 km/h (2 Bft)
09.12.2006 02:00 3,8 C 98 % 1006 hPa 1,0 l/m SO 7,3 km/h (2 Bft)
09.12.2006 03:00 3,5 C 98 % 1006 hPa 1,0 l/m S-SO 5,8 km/h (2 Bft)
09.12.2006 04:00 3,3 C 98 % 1007 hPa 1,0 l/m SO 3,6 km/h (1 Bft)
09.12.2006 05:00 3,0 C 98 % 1007 hPa 1,0 l/m N 0,1 km/h (0 Bft)
09.12.2006 06:00 2,7 C 98 % 1007 hPa 1,0 l/m S-SO 2,5 km/h (1 Bft)
09.12.2006 07:00 2,4 C 98 % 1008 hPa 1,0 l/m S-SO 2,0 km/h (1 Bft)
09.12.2006 08:00 2,0 C 98 % 1009 hPa 2,0 l/m S-SW 0,7 km/h (0 Bft)
09.12.2006 09:00 1,3 C 98 % 1010 hPa 0,0 l/m O 3,7 km/h (1 Bft)
09.12.2006 10:00 0,7 C 98 % 1011 hPa 0,0 l/m SO 6,2 km/h (2 Bft)
09.12.2006 11:00 0,7 C 98 % 1011 hPa 0,0 l/m O-SO 6,8 km/h (2 Bft)
09.12.2006 12:00 0,9 C 98 % 1012 hPa 1,0 l/m O 6,7 km/h (2 Bft)
09.12.2006 13:00 0,9 C 98 % 1012 hPa 3,0 l/m O-SO 6,7 km/h (2 Bft)
09.12.2006 14:00 1,2 C 98 % 1012 hPa 2,0 l/m O-SO 7,5 km/h (2 Bft)
09.12.2006 15:00 1,6 C 98 % 1013 hPa 1,0 l/m O-SO 4,5 km/h (1 Bft)
09.12.2006 16:00 1,6 C 98 % 1014 hPa 1,0 l/m O-SO 0,4 km/h (0 Bft)
09.12.2006 17:00 1,9 C 98 % 1015 hPa 1,0 l/m N 0,1 km/h (0 Bft)
09.12.2006 18:00 2,1 C 98 % 1016 hPa 0,0 l/m SO 0,8 km/h (0 Bft)
09.12.2006 19:00 2,4 C 98 % 1016 hPa 1,0 l/m SO 3,3 km/h (1 Bft)
09.12.2006 20:00 2,5 C 98 % 1017 hPa 0,0 l/m S-SO 4,4 km/h (1 Bft)
09.12.2006 21:00 2,5 C 98 % 1018 hPa 0,0 l/m S-SO 4,2 km/h (1 Bft)
09.12.2006 22:00 2,6 C 98 % 1020 hPa 0,0 l/m S-SW 6,5 km/h (2 Bft)
09.12.2006 23:00 2,6 C 98 % 1020 hPa 1,0 l/m S 5,5 km/h (1 Bft)
10.12.2006 00:00 2,7 C 98 % 1021 hPa 0,0 l/m S-SW 6,5 km/h (2 Bft)
10.12.2006 01:00 2,7 C 98 % 1022 hPa 0,0 l/m S 7,4 km/h (2 Bft)
10.12.2006 02:00 2,7 C 98 % 1023 hPa 0,0 l/m S-SW 6,1 km/h (2 Bft)
10.12.2006 03:00 2,5 C 98 % 1023 hPa 0,0 l/m N 0,0 km/h (0 Bft)
10.12.2006 04:00 1,9 C 98 % 1024 hPa 0,0 l/m N 0,0 km/h (0 Bft)
10.12.2006 05:00 1,6 C 98 % 1025 hPa 0,0 l/m N 0,0 km/h (0 Bft)
10.12.2006 06:00 1,5 C 98 % 1025 hPa 0,0 l/m N 0,0 km/h (0 Bft)
10.12.2006 07:00 1,5 C 98 % 1026 hPa 0,0 l/m SO 0,3 km/h (0 Bft)
10.12.2006 08:00 1,6 C 98 % 1027 hPa 0,0 l/m SW 1,2 km/h (1 Bft)
10.12.2006 09:00 2,0 C 98 % 1028 hPa 1,0 l/m S 0,8 km/h (0 Bft)
10.12.2006 10:00 2,5 C 98 % 1029 hPa 0,0 l/m N 0,0 km/h (0 Bft)
10.12.2006 11:00 3,4 C 98 % 1029 hPa 0,0 l/m O-SO 1,2 km/h (1 Bft)
10.12.2006 12:00 4,1 C 92 % 1030 hPa 0,0 l/m S-SO 2,8 km/h (1 Bft)
10.12.2006 13:00 4,2 C 87 % 1029 hPa 0,0 l/m SO 7,5 km/h (2 Bft)
10.12.2006 14:00 3,9 C 88 % 1030 hPa 0,0 l/m S-SO 6,2 km/h (2 Bft)
10.12.2006 15:00 3,8 C 89 % 1030 hPa 0,0 l/m N 0,0 km/h (0 Bft)
10.12.2006 16:00 3,4 C 91 % 1031 hPa 0,0 l/m N 0,0 km/h (0 Bft)
10.12.2006 17:00 2,6 C 94 % 1031 hPa 0,0 l/m N 0,0 km/h (0 Bft)
10.12.2006 18:00 1,3 C 96 % 1032 hPa 0,0 l/m N 0,0 km/h (0 Bft)
10.12.2006 19:00 0,7 C 98 % 1032 hPa 0,0 l/m N 0,0 km/h (0 Bft)
10.12.2006 20:00 0,4 C 98 % 1032 hPa 0,0 l/m N 0,0 km/h (0 Bft)
10.12.2006 21:00 0,3 C 98 % 1032 hPa 0,0 l/m N 0,0 km/h (0 Bft)
10.12.2006 22:00 0,2 C 98 % 1032 hPa 0,0 l/m N 0,0 km/h (0 Bft)
10.12.2006 23:00 -0,3 C 98 % 1032 hPa 0,0 l/m N 0,0 km/h (0 Bft)
Min-Datum _ 10.12.06 08.12.06 08.12.06 - - 04.12.06
_ Min-Zeit 23:49 12:47 12:20 - - 00:15
Minimum _ -0,5 C 41 % 998 hPa - - 0,0 km/h (0 Bft)
Max-Datum _ 08.12.06 04.12.06 10.12.06 06.12.06 - 08.12.06
_ Max-Zeit 12:47 04:46 18:34 13:30 - 13:20
Maximum _ 17,0 C 100 % 1032 hPa 5,0 l/m - 43,6 km/h
S-SO (6 Bft)
Durchschnitt _ 5,5 C 95 % 1014 hPa #43,0 l/m S 7,1 km/h (2 Bft)

Durchschnitt Minimum Temp.5,2 C
Durchschnitt Maximum Temp.5,8 C